Date,TemperatureHighF,TemperatureAvgF,TemperatureLowF,DewpointHighF,DewpointAvgF,DewpointLowF,HumidityHigh,HumidityAvg,HumidityLow,PressureMaxIn,PressureMinIn,WindSpeedMaxMPH,WindSpeedAvgMPH,GustSpeedMaxMPH,PrecipitationSumIn
2013-2-1,39,26,20,30,11,3,84,55,36,30.38,29.77,11,3,20,0.00
2013-2-2,34,24,14,28,17,6,93,74,44,30.38,30.03,2,0,0,0.00
2013-2-3,40,34,30,29,24,19,92,68,55,30.02,29.84,10,3,22,0.00
2013-2-4,41,31,25,24,20,14,84,63,48,30.12,29.94,6,1,18,0.00
2013-2-5,51,41,28,37,32,24,85,70,55,29.95,29.88,8,1,14,0.00
2013-2-6,56,43,30,35,29,24,81,60,31,30.28,29.93,6,1,13,0.00
2013-2-7,39,35,29,32,30,25,95,81,73,30.37,30.12,2,0,0,0.00
2013-2-8,51,37,32,40,32,25,97,82,55,30.12,29.83,10,2,19,0.00
2013-2-9,36,34,31,25,20,16,65,57,49,30.25,30.07,11,3,17,0.00
2013-2-11,54,53,52,39,33,27,57,46,37,29.90,29.89,6,4,18,0.00
2013-2-12,58,48,41,28,24,21,52,39,26,30.04,29.88,9,3,18,0.00
2013-2-13,44,42,40,42,35,27,96,78,53,29.92,29.59,4,1,14,0.00
2013-2-14,40,37,34,32,27,24,73,67,63,29.97,29.82,8,2,14,0.00
2013-2-15,60,46,34,39,33,28,85,63,32,30.07,29.88,7,2,14,0.00
2013-2-16,39,34,27,29,20,14,67,57,42,30.00,29.85,7,1,13,0.00
2013-2-17,31,25,19,17,7,2,81,48,34,30.24,29.92,8,3,18,0.00
2013-2-18,54,36,22,25,16,7,73,46,28,30.37,30.14,4,1,0,0.00
2013-2-19,53,40,30,41,27,13,91,63,29,30.14,29.76,13,2,23,0.00
2013-2-20,44,36,30,17,12,9,49,38,25,30.16,29.94,13,4,23,0.00
2013-2-21,52,38,27,21,16,13,58,43,25,30.26,30.11,10,2,12,0.00
2013-2-22,40,34,30,31,27,19,90,77,44,30.33,30.15,2,0,0,0.00
2013-2-23,35,34,33,33,32,31,95,91,87,30.16,30.01,1,0,0,0.00
2013-2-24,55,48,39,25,22,20,52,37,29,30.06,29.91,6,2,14,0.00
2013-2-25,44,33,25,26,23,21,86,67,45,30.20,30.05,3,0,0,0.00
2013-2-26,39,35,30,38,30,22,97,85,64,30.18,29.64,2,0,0,0.00
2013-2-27,49,42,38,40,35,32,97,77,56,29.75,29.60,7,2,14,0.00
2013-2-28,41,38,36,33,28,25,78,66,53,29.84,29.68,15,3,18,0.00